sat.trackr.live / text

‹ back to catalog

UNKNOWN

NORAD 81102

UNKNOWN UNKNOWN UNKNOWN

§ Identity

Operator
Country
Launch date
Launch site
Launch vehicle
Mass (kg)
RCS (m²)

External: N2YO · Heavens-Above

§ Orbital elements

Epoch: 2026-08-18T22:04:14.685024Z

Period
161.50 min
Inclination
52.0261°
Eccentricity
0.3267526
Mean motion
8.91624791 rev/d
Perigee alt
235.7 km
Apogee alt
6,655.6 km
Semi-major
9,823.8 km
B*
1.4501e-3
RAAN
105.4491°
Arg perigee
121.7936°
Mean anomaly
274.2751°
Rev number
60

§ Raw data

UNKNOWN1 81102U          26230.91961441  .00067901  00000+0  14501-2 0  99952 81102  52.0261 105.4491 3267526 121.7936 274.2751  8.91624791   605

JSON: /api/v1/satellites/81102 · /tle

For live sub-satellite position, see the globe view (requires WebGL).

§ Visibility from observer

Set your observer location to see the next 7 days of passes ≥ 10°. The values pass through the URL so the page stays shareable.

No JS? Fill the form by hand. The geolocation button needs JavaScript.